GW5296 Weather Reports


time (UTC)temp
C
wind
direction
speed
KPH
gust
KPH
rain 1hr
cm
rain 24hr
cm
rain mn
cm
humidity
%
barometer
mb
20260509034111 29 50 8.0 9.7 0.00 0.00 0.00 69 1011.0
20260509033611 29 74 6.4 9.7 0.00 0.00 0.00 70 1011.0
20260509033111 30 74 3.2 4.8 0.00 0.00 0.00 69 1011.0
20260509032611 29 42 9.7 12.9 0.00 0.00 0.00 69 1011.0
20260509032112 29 47 14.5 16.1 0.00 0.00 0.00 70 1011.0
20260509031611 30 52 8.0 9.7 0.00 0.00 0.00 70 1011.0
20260509031113 29 54 11.3 12.9 0.00 0.00 0.00 70 1011.0
20260509030611 28 28 12.9 14.5 0.00 0.00 0.00 71 1010.0
20260509030114 28 4 6.4 6.4 0.00 0.00 0.00 73 1010.0
20260509025613 28 81 3.2 4.8 0.00 0.00 0.00 74 1010.0
20260509025112 28 285 3.2 4.8 0.00 0.00 0.00 74 1010.0
20260509024612 28 7 11.3 14.5 0.00 0.00 0.00 74 1010.0
20260509024112 27 9 11.3 16.1 0.00 0.00 0.00 75 1010.0
20260509023612 27 35 3.2 3.2 0.00 0.00 0.00 77 1010.0
20260509023111 27 330 3.2 3.2 0.00 0.00 0.00 77 1010.0
20260509022613 27 354 4.8 4.8 0.00 0.00 0.00 77 1010.0
20260509022113 27 265 3.2 3.2 0.00 0.00 0.00 76 1010.0
20260509021611 27 8 6.4 6.4 0.00 0.00 0.00 77 1010.0
20260509021112 27 353 6.4 6.4 0.00 0.00 0.00 79 1010.0
20260509020615 27 98 3.2 3.2 0.00 0.00 0.00 81 1010.0
20260509020115 26 0 1.6 3.2 0.00 0.00 0.00 83 1010.0
20260509015612 26 330 3.2 3.2 0.00 0.00 0.00 84 1010.0
20260509015116 26 344 3.2 3.2 0.00 0.00 0.00 85 1010.0
20260509014612 26 272 1.6 3.2 0.00 0.00 0.00 87 1010.0
20260509014112 26 226 0.0 0.0 0.00 0.00 0.00 88 1010.0
20260509013612 26 254 0.0 0.0 0.00 0.00 0.00 89 1010.0
20260509013112 25 263 0.0 1.6 0.00 0.00 0.00 90 1010.0
20260509012611 25 334 1.6 3.2 0.00 0.00 0.00 91 1010.0
20260509012113 25 225 0.0 0.0 0.00 0.00 0.00 91 1010.0
20260509011611 25 307 1.6 3.2 0.00 0.00 0.00 91 1010.0
20260509011114 25 237 1.6 1.6 0.00 0.00 0.00 92 1010.0
20260509010614 25 315 1.6 3.2 0.00 0.00 0.00 92 1010.0
20260509010114 25 356 3.2 3.2 0.00 0.00 0.00 92 1010.0
20260509005611 25 5 3.2 3.2 0.00 0.00 0.00 92 1009.0
20260509005112 25 2 3.2 3.2 0.00 0.00 0.00 92 1010.0
20260509004611 25 352 1.6 1.6 0.00 0.00 0.00 92 1010.0
20260509004113 25 346 3.2 3.2 0.00 0.00 0.00 92 1010.0
20260509003612 25 5 3.2 3.2 0.00 0.00 0.00 92 1010.0
20260509003112 25 268 3.2 3.2 0.00 0.00 0.00 92 1010.0
20260509002614 25 293 3.2 3.2 0.00 0.00 0.00 92 1010.0
20260509002113 25 239 0.0 0.0 0.00 0.00 0.00 91 1010.0
20260509001612 25 244 0.0 0.0 0.00 0.00 0.00 91 1009.0
20260509001111 25 235 0.0 0.0 0.00 0.00 0.00 91 1009.0
20260509000612 25 238 0.0 0.0 0.00 0.00 0.00 91 1009.0
20260509000113 25 237 0.0 0.0 0.00 0.00 0.00 91 1009.0
20260508235613 25 235 0.0 0.0 0.00 0.00 0.00 91 1009.0
20260508235113 25 236 0.0 0.0 0.00 0.00 0.00 91 1009.0
20260508234612 25 235 0.0 0.0 0.00 0.00 0.00 91 1009.0
20260508234111 25 223 0.0 0.0 0.00 0.00 0.00 91 1009.0
20260508233613 25 214 0.0 0.0 0.00 0.00 0.00 91 1009.0
20260508233112 25 224 0.0 0.0 0.00 0.00 0.00 91 1009.0
20260508232613 25 228 0.0 0.0 0.00 0.00 0.00 91 1009.0
20260508232112 25 211 0.0 0.0 0.00 0.00 0.00 91 1009.0
20260508231613 25 198 0.0 0.0 0.00 0.00 0.00 91 1009.0
20260508231112 25 198 0.0 0.0 0.00 0.00 0.00 91 1009.0
20260508230612 25 194 0.0 0.0 0.00 0.00 0.00 91 1009.0
20260508230112 25 194 0.0 0.0 0.00 0.00 0.00 91 1009.0
20260508225613 25 210 0.0 0.0 0.00 0.00 0.00 90 1009.0
20260508225111 25 213 0.0 0.0 0.00 0.00 0.00 90 1009.0
20260508224612 25 220 0.0 0.0 0.00 0.00 0.00 90 1009.0
20260508224112 25 221 0.0 0.0 0.00 0.00 0.00 90 1009.0
20260508223613 25 221 0.0 0.0 0.00 0.00 0.00 90 1009.0
20260508223111 25 221 0.0 0.0 0.00 0.00 0.00 90 1009.0
20260508222611 25 221 0.0 0.0 0.00 0.00 0.00 90 1009.0
20260508222113 25 221 0.0 0.0 0.00 0.00 0.00 90 1008.0
20260508221613 25 221 0.0 0.0 0.00 0.00 0.00 90 1008.0
20260508221116 25 221 0.0 0.0 0.00 0.00 0.00 90 1008.0
20260508220613 25 220 0.0 0.0 0.00 0.00 0.00 90 1008.0
20260508220112 25 226 0.0 0.0 0.00 0.00 0.00 89 1008.0
20260508215613 25 223 0.0 0.0 0.00 0.00 0.00 89 1009.0
20260508215113 25 230 0.0 0.0 0.00 0.00 0.00 89 1008.0
20260508214614 25 217 0.0 0.0 0.00 0.00 0.00 89 1008.0
20260508214111 25 217 0.0 0.0 0.00 0.00 0.00 89 1009.0
20260508213611 25 217 0.0 0.0 0.00 0.00 0.00 89 1009.0
20260508213115 25 217 0.0 0.0 0.00 0.00 0.00 89 1009.0
20260508212613 25 217 0.0 0.0 0.00 0.00 0.00 89 1009.0
20260508212113 25 217 0.0 0.0 0.00 0.00 0.00 88 1009.0
20260508211611 25 231 0.0 0.0 0.00 0.00 0.00 88 1009.0
20260508211112 25 247 0.0 0.0 0.00 0.00 0.00 88 1009.0
20260508210612 25 197 0.0 0.0 0.00 0.00 0.00 88 1009.0
20260508210113 25 197 0.0 0.0 0.00 0.00 0.00 87 1009.0
20260508205612 25 197 0.0 0.0 0.00 0.00 0.00 88 1009.0
20260508205113 25 197 0.0 0.0 0.00 0.00 0.00 88 1009.0
20260508204613 25 197 0.0 0.0 0.00 0.00 0.00 88 1009.0
20260508204113 25 197 0.0 0.0 0.00 0.00 0.00 88 1009.0
20260508203612 25 197 0.0 0.0 0.00 0.00 0.00 88 1009.0
20260508203112 25 197 0.0 0.0 0.00 0.00 0.00 87 1009.0
20260508202614 25 197 0.0 0.0 0.00 0.00 0.00 87 1009.0
20260508202115 25 197 0.0 0.0 0.00 0.00 0.00 87 1009.0
20260508201613 25 197 0.0 0.0 0.00 0.00 0.00 87 1009.0
20260508201112 25 197 0.0 0.0 0.00 0.00 0.00 87 1009.0
20260508200613 25 197 0.0 0.0 0.00 0.00 0.00 87 1009.0
20260508200113 25 205 0.0 0.0 0.00 0.00 0.00 88 1009.0
20260508195613 25 205 0.0 0.0 0.00 0.00 0.00 88 1009.0
20260508195114 25 209 0.0 0.0 0.00 0.00 0.00 87 1009.0
20260508194613 25 225 0.0 0.0 0.00 0.00 0.00 87 1009.0
20260508194120 25 226 0.0 0.0 0.00 0.00 0.00 88 1009.0
20260508193611 25 227 0.0 0.0 0.00 0.00 0.00 88 1009.0
20260508193113 25 239 0.0 0.0 0.00 0.00 0.00 88 1009.0
20260508192619 25 266 0.0 0.0 0.00 0.00 0.00 87 1009.0
20260508192115 25 239 0.0 0.0 0.00 0.00 0.00 87 1009.0
20260508191615 25 211 0.0 0.0 0.00 0.00 0.00 86 1009.0
20260508191115 25 190 0.0 0.0 0.00 0.00 0.00 86 1009.0
20260508190613 25 190 0.0 0.0 0.00 0.00 0.00 86 1009.0
20260508190111 25 190 0.0 0.0 0.00 0.00 0.00 86 1009.0
20260508185614 25 191 0.0 0.0 0.00 0.00 0.00 86 1010.0
20260508185113 25 201 0.0 0.0 0.00 0.00 0.00 86 1009.0
20260508184614 25 217 0.0 0.0 0.00 0.00 0.00 85 1010.0
20260508184112 25 217 0.0 0.0 0.00 0.00 0.00 85 1010.0
20260508183612 25 217 0.0 0.0 0.00 0.00 0.00 84 1010.0
20260508183112 25 217 0.0 0.0 0.00 0.00 0.99 84 1010.0
20260508182613 25 217 0.0 0.0 0.00 0.00 0.99 84 1010.0
20260508182113 25 217 0.0 0.0 0.00 0.00 0.99 84 1010.0
20260508181614 25 217 0.0 0.0 0.00 0.00 0.99 83 1010.0
20260508181111 25 217 0.0 0.0 0.00 0.00 0.99 83 1010.0
20260508180613 25 217 0.0 0.0 0.00 0.00 0.99 83 1010.0
20260508180113 25 219 0.0 0.0 0.00 0.00 0.99 84 1010.0
20260508175615 25 224 0.0 0.0 0.00 0.00 0.99 83 1010.0
20260508175112 25 239 0.0 0.0 0.00 0.00 0.99 84 1011.0
20260508174615 25 214 0.0 0.0 0.00 0.00 0.99 84 1010.0
20260508174114 25 260 1.6 3.2 0.00 0.00 0.99 84 1011.0
20260508173614 25 244 3.2 3.2 0.00 0.00 0.99 84 1011.0
20260508173114 25 230 3.2 3.2 0.00 0.00 0.99 83 1011.0
20260508172613 25 212 3.2 3.2 0.00 0.00 0.99 83 1011.0
20260508172112 25 235 0.0 0.0 0.00 0.00 0.99 83 1011.0
20260508171613 25 235 1.6 1.6 0.00 0.00 0.99 83 1011.0
20260508171112 25 235 1.6 1.6 0.00 0.00 0.99 83 1011.0
20260508170616 25 234 3.2 3.2 0.00 0.00 0.99 83 1011.0
20260508170113 25 219 3.2 3.2 0.00 0.00 0.99 82 1011.0
20260508165612 25 232 4.8 6.4 0.00 0.00 0.99 82 1011.0
20260508165113 25 256 3.2 3.2 0.00 0.00 0.99 82 1011.0
20260508164616 25 229 1.6 3.2 0.00 0.00 0.99 82 1011.0
20260508164111 25 231 4.8 4.8 0.00 0.00 0.99 82 1011.0
20260508163612 25 239 3.2 3.2 0.00 0.00 0.99 82 1011.0
20260508163115 25 233 4.8 4.8 0.00 0.00 0.99 82 1011.0
20260508162613 25 241 4.8 4.8 0.00 0.00 0.99 82 1011.0
20260508162113 25 252 4.8 4.8 0.00 0.00 0.99 82 1011.0
20260508161615 25 239 4.8 4.8 0.00 0.00 0.99 82 1011.0
20260508161115 25 246 6.4 6.4 0.00 0.00 0.99 82 1011.0
20260508160613 25 221 4.8 4.8 0.00 0.00 0.99 82 1011.0
20260508160115 26 242 8.0 9.7 0.00 0.00 0.99 81 1011.0
20260508155611 26 232 9.7 11.3 0.00 0.00 0.99 80 1011.0
20260508155114 26 192 1.6 1.6 0.00 0.00 0.99 81 1010.0
20260508154613 26 174 3.2 3.2 0.00 0.00 0.99 81 1011.0
20260508154113 26 171 3.2 3.2 0.00 0.00 0.99 80 1010.0
20260508153614 26 178 1.6 1.6 0.00 0.00 0.99 80 1010.0
20260508153114 26 182 1.6 1.6 0.00 0.00 0.99 80 1011.0
20260508152617 26 163 3.2 3.2 0.00 0.00 0.99 78 1010.0
20260508152114 26 180 1.6 1.6 0.00 0.00 0.99 77 1010.0
20260508151613 26 195 0.0 0.0 0.00 0.00 0.99 78 1010.0
20260508151111 26 212 0.0 1.6 0.00 0.00 0.99 78 1010.0
20260508150614 26 207 0.0 0.0 0.00 0.00 0.99 77 1010.0
20260508150113 26 215 0.0 0.0 0.00 0.00 0.99 77 1010.0
20260508145613 26 218 0.0 0.0 0.00 0.00 0.99 77 1010.0
20260508145113 26 202 0.0 0.0 0.00 0.00 0.99 77 1010.0
20260508144614 27 234 1.6 1.6 0.00 0.00 0.99 76 1010.0
20260508144113 27 67 1.6 1.6 0.00 0.00 0.99 74 1010.0
20260508143615 27 57 1.6 3.2 0.00 0.00 0.99 75 1010.0
20260508143114 27 139 1.6 1.6 0.00 0.00 0.99 75 1010.0
20260508142613 26 136 3.2 3.2 0.00 0.00 0.99 75 1010.0
20260508142112 26 126 4.8 4.8 0.00 0.00 0.99 75 1009.0
20260508141613 26 85 3.2 4.8 0.00 0.00 0.99 74 1009.0
20260508140803 26 106 6.4 9.7 0.00 0.00 0.99 75 1009.0
20260508140115 26 155 4.8 4.8 0.00 0.00 0.99 76 1009.0
20260508135613 26 172 6.4 6.4 0.00 0.00 0.99 78 1009.0
20260508135114 25 217 8.0 9.7 0.00 0.00 0.99 79 1009.0
20260508134613 26 214 3.2 3.2 0.00 0.00 0.99 78 1009.0
20260508134114 27 222 4.8 4.8 0.00 0.00 0.99 73 1009.0
20260508133613 26 178 1.6 1.6 0.00 0.00 0.99 72 1009.0
20260508133113 26 69 3.2 4.8 0.00 0.00 0.99 74 1009.0
20260508132613 26 134 3.2 4.8 0.00 0.00 0.99 78 1008.0
20260508132114 26 191 9.7 14.5 0.00 0.00 0.99 78 1008.0
20260508131615 26 136 9.7 12.9 0.00 0.00 0.99 77 1008.0
20260508131114 26 109 11.3 16.1 0.00 0.00 0.99 77 1007.0
20260508130613 26 121 8.0 9.7 0.00 0.00 0.99 76 1007.0
20260508130113 26 89 6.4 6.4 0.00 0.00 0.99 76 1008.0
20260508125613 26 126 12.9 14.5 0.00 0.00 0.99 75 1007.0
20260508125111 26 116 14.5 20.9 0.00 0.00 0.99 74 1007.0
20260508124611 27 74 17.7 25.7 0.00 0.00 0.99 74 1007.0
20260508124113 27 91 11.3 16.1 0.00 0.00 0.99 75 1007.0
20260508123614 28 112 16.1 20.9 0.00 0.00 0.99 75 1007.0
20260508123115 28 118 8.0 20.9 0.00 0.00 0.99 71 1007.0
20260508122614 30 91 20.9 29.0 0.00 0.00 0.99 65 1007.0
20260508122114 30 153 6.4 11.3 0.00 0.00 0.99 64 1006.0
20260508121616 30 73 1.6 3.2 0.00 0.00 0.99 65 1006.0
20260508121121 31 140 1.6 3.2 0.00 0.00 0.99 64 1006.0
20260508120613 31 71 6.4 9.7 0.00 0.00 0.99 62 1006.0
20260508120114 31 117 3.2 9.7 0.00 0.00 0.99 64 1006.0
20260508115613 31 101 6.4 9.7 0.00 0.00 0.99 68 1006.0
20260508115112 31 123 9.7 11.3 0.00 0.00 0.99 67 1006.0
20260508114613 31 131 8.0 11.3 0.00 0.00 0.99 66 1006.0
20260508114114 31 119 9.7 11.3 0.00 0.00 0.99 66 1006.0
20260508113613 31 98 8.0 12.9 0.00 0.00 0.99 66 1006.0
20260508113115 31 105 16.1 17.7 0.00 0.00 0.99 64 1006.0
20260508112614 31 86 11.3 14.5 0.00 0.00 0.99 63 1006.0
20260508112115 31 114 6.4 6.4 0.00 0.00 0.99 62 1006.0
20260508111612 31 113 9.7 11.3 0.00 0.00 0.99 64 1005.0
20260508111113 32 97 14.5 17.7 0.00 0.00 0.99 64 1005.0
20260508110611 32 147 14.5 16.1 0.00 0.00 0.99 64 1005.0
20260508110114 32 174 4.8 6.4 0.00 0.00 0.99 65 1005.0
20260508105614 32 123 19.3 24.1 0.00 0.00 0.99 63 1005.0
20260508105111 33 124 11.3 14.5 0.00 0.00 0.99 63 1005.0
20260508104611 33 209 6.4 9.7 0.00 0.00 0.99 61 1005.0
20260508104114 35 144 3.2 4.8 0.00 0.00 0.99 54 1005.0
20260508103614 36 196 0.0 0.0 0.00 0.00 0.99 52 1005.0
20260508103113 37 275 0.0 1.6 0.00 0.00 0.99 52 1005.0
20260508102615 36 255 0.0 0.0 0.00 0.00 0.99 50 1005.0
20260508102112 35 241 1.6 1.6 0.00 0.00 0.99 55 1005.0
20260508101616 35 332 1.6 3.2 0.00 0.00 0.99 55 1005.0
20260508101113 37 135 4.8 6.4 0.00 0.00 0.99 54 1005.0
20260508100613 36 202 1.6 3.2 0.00 0.00 0.99 51 1005.0
20260508100115 35 213 3.2 3.2 0.00 0.00 0.99 54 1005.0
20260508095616 35 125 4.8 9.7 0.00 0.00 0.99 55 1005.0
20260508095115 36 125 6.4 6.4 0.00 0.00 0.99 54 1005.0
20260508094611 36 219 1.6 1.6 0.00 0.00 0.99 56 1005.0
20260508094113 35 65 0.0 0.0 0.00 0.00 0.99 56 1006.0
20260508093615 35 54 9.7 11.3 0.00 0.00 0.99 57 1006.0
20260508093115 36 212 0.0 0.0 0.00 0.00 0.99 52 1006.0
20260508092611 35 249 0.0 1.6 0.00 0.00 0.99 54 1006.0
20260508091628 34 36 8.0 11.3 0.00 0.00 0.99 58 1006.0
20260508091113 34 219 1.6 3.2 0.00 0.00 0.99 56 1006.0
20260508090613 35 46 8.0 9.7 0.00 0.00 0.99 56 1006.0
20260508090116 34 288 1.6 3.2 0.00 0.00 0.99 59 1006.0
20260508085615 34 79 1.6 3.2 0.00 0.00 0.99 58 1006.0
20260508085114 34 213 0.0 1.6 0.00 0.00 0.99 57 1007.0
20260508084611 33 138 4.8 4.8 0.00 0.00 0.99 58 1007.0
20260508084114 35 77 1.6 3.2 0.00 0.00 0.99 58 1007.0
20260508083612 35 200 1.6 1.6 0.00 0.00 0.99 57 1007.0
20260508083115 34 127 0.0 0.0 0.00 0.00 0.99 57 1007.0
20260508082615 34 147 0.0 1.6 0.00 0.00 0.99 59 1007.0
20260508082114 33 150 3.2 3.2 0.00 0.00 0.99 59 1007.0
20260508081615 33 115 6.4 9.7 0.00 0.00 0.99 59 1007.0
20260508081113 34 328 9.7 11.3 0.00 0.00 0.99 60 1007.0
20260508080613 34 251 0.0 1.6 0.00 0.00 0.99 58 1007.0
20260508080111 33 43 3.2 3.2 0.00 0.00 0.99 61 1008.0
20260508075613 33 61 3.2 6.4 0.00 0.00 0.99 61 1008.0
20260508075113 33 221 0.0 0.0 0.00 0.00 0.99 62 1008.0
20260508074614 33 169 3.2 4.8 0.00 0.00 0.99 61 1008.0
20260508074111 34 74 0.0 1.6 0.00 0.00 0.99 60 1008.0
20260508073613 33 75 3.2 3.2 0.00 0.00 0.99 60 1008.0
20260508073117 33 359 6.4 6.4 0.00 0.00 0.99 59 1008.0
20260508072612 33 115 8.0 9.7 0.00 0.00 0.99 61 1008.0
20260508072114 33 41 8.0 11.3 0.00 0.00 0.99 60 1008.0
20260508071611 34 98 0.0 0.0 0.00 0.00 0.99 61 1008.0
20260508071113 33 249 3.2 3.2 0.00 0.00 0.99 62 1009.0
20260508070612 33 42 0.0 1.6 0.00 0.00 0.99 62 1009.0
20260508070114 32 156 4.8 4.8 0.00 0.00 0.99 63 1009.0
20260508065611 33 177 4.8 6.4 0.00 0.00 0.99 63 1009.0
20260508065113 33 184 1.6 1.6 0.00 0.00 0.99 63 1009.0
20260508064613 33 210 3.2 3.2 0.00 0.00 0.99 61 1009.0
20260508064115 32 176 9.7 9.7 0.00 0.00 0.99 64 1009.0
20260508063613 32 127 0.0 1.6 0.00 0.00 0.99 65 1009.0
20260508063115 32 189 4.8 4.8 0.00 0.00 0.99 64 1009.0
20260508062613 32 112 6.4 9.7 0.00 0.00 0.99 65 1009.0
20260508062111 33 176 6.4 9.7 0.00 0.00 0.99 64 1009.0
20260508061613 32 233 1.6 1.6 0.00 0.00 0.99 64 1009.0
20260508061115 32 44 1.6 3.2 0.00 0.00 0.99 65 1010.0
20260508060611 31 86 1.6 1.6 0.00 0.00 0.99 67 1010.0
20260508060111 32 141 3.2 4.8 0.00 0.00 0.99 64 1010.0
20260508055612 31 166 4.8 4.8 0.00 0.00 0.99 65 1010.0
20260508055111 31 115 3.2 6.4 0.00 0.00 0.99 65 1010.0
20260508054611 31 131 4.8 6.4 0.00 0.00 0.99 65 1010.0
20260508054111 32 107 1.6 3.2 0.00 0.00 0.99 65 1010.0
20260508053612 31 181 4.8 6.4 0.00 0.00 0.99 66 1010.0
20260508053111 31 196 6.4 6.4 0.00 0.00 0.99 67 1010.0
20260508052611 30 172 0.0 1.6 0.00 0.00 0.99 67 1010.0
20260508052111 31 92 1.6 1.6 0.00 0.00 0.99 67 1010.0
20260508051613 31 19 8.0 9.7 0.00 0.00 0.99 66 1010.0
20260508051111 30 170 1.6 1.6 0.00 0.00 0.99 67 1010.0
20260508050612 30 51 3.2 4.8 0.00 0.00 0.99 68 1010.0
20260508050111 30 176 4.8 4.8 0.00 0.00 0.99 69 1010.0
20260508045612 31 96 0.0 0.0 0.00 0.00 0.99 68 1010.0
20260508045111 30 189 0.0 0.0 0.00 0.00 0.99 68 1010.0
20260508044612 30 231 3.2 3.2 0.00 0.00 0.99 69 1010.0
20260508044112 31 215 1.6 1.6 0.00 0.00 0.99 68 1010.0
20260508043611 30 212 1.6 1.6 0.00 0.00 0.99 68 1010.0
20260508043112 30 184 1.6 1.6 0.00 0.00 0.99 70 1010.0
20260508042612 30 161 3.2 4.8 0.00 0.00 0.99 69 1010.0
20260508042111 30 234 3.2 3.2 0.00 0.00 0.99 70 1010.0
20260508041613 30 178 0.0 1.6 0.00 0.00 0.99 70 1011.0
20260508041111 29 227 3.2 3.2 0.00 0.00 0.99 72 1011.0
20260508040618 29 190 1.6 1.6 0.00 0.00 0.99 73 1011.0
20260508040111 29 167 0.0 0.0 0.00 0.00 0.99 73 1011.0
20260508035611 30 212 3.2 4.8 0.00 0.00 0.99 71 1011.0
20260508035112 28 196 0.0 0.0 0.00 0.00 0.99 74 1010.0
20260508034611 28 194 0.0 0.0 0.00 0.00 0.99 74 1010.0